QPF
0.01 0.00 0.00 0.00 0.00 0.00 0.00 0.01 0.02 0.03 0.04 0.05 0.06 0.07 0.08 0.08 0.09 0.09 0.09 0.07 0.05 0.02 0.01 0.01 0.00 0.00 0.00 0.00 0.00 0.00 0.00 0.00 0.00 0.00 0.00 0.00 0.00 0.00 0.00 0.00 0.00 0.00 0.00
0.01 0.01 0.00 0.00 0.00 0.00 0.00 0.01 0.03 0.05 0.06 0.08 0.08 0.09 0.08 0.08 0.08 0.08 0.08 0.07 0.06 0.05 0.03 0.02 0.01 0.01 0.00 0.00 0.00 0.00 0.00 0.00 0.00 0.00 0.00 0.00 0.00 0.00 0.00 0.00 0.00 0.00 0.00
0.01 0.01 0.00 0.00 0.00 0.00 0.01 0.01 0.03 0.05 0.08 0.10 0.12 0.12 0.12 0.13 0.12 0.11 0.10 0.09 0.08 0.07 0.06 0.05 0.04 0.02 0.01 0.00 0.00 0.00 0.00 0.00 0.00 0.00 0.00 0.00 0.00 0.00 0.00 0.00 0.00 0.00 0.00
0.01 0.01 0.00 0.00 0.01 0.01 0.01 0.02 0.03 0.04 0.07 0.09 0.12 0.15 0.18 0.20 0.20 0.19 0.16 0.14 0.12 0.10 0.08 0.07 0.06 0.04 0.02 0.01 0.00 0.00 0.00 0.00 0.00 0.00 0.01 0.01 0.00 0.00 0.01 0.00 0.00 0.00 0.00
0.01 0.01 0.00 0.00 0.00 0.01 0.02 0.03 0.03 0.05 0.07 0.08 0.10 0.15 0.20 0.24 0.23 0.18 0.16 0.15 0.15 0.13 0.11 0.09 0.06 0.05 0.03 0.02 0.01 0.00 0.00 0.00 0.00 0.00 0.01 0.01 0.01 0.01 0.01 0.01 0.01 0.01 0.01
0.00 0.00 0.00 0.00 0.00 0.01 0.02 0.03 0.04 0.05 0.05 0.06 0.07 0.12 0.19 0.24 0.24 0.16 0.12 0.13 0.14 0.13 0.11 0.09 0.06 0.05 0.04 0.03 0.02 0.01 0.00 0.00 0.00 0.00 0.01 0.01 0.01 0.01 0.02 0.02 0.03 0.02 0.02
0.00 0.00 0.00 0.00 0.00 0.00 0.01 0.02 0.03 0.04 0.04 0.04 0.04 0.06 0.10 0.13 0.13 0.11 0.09 0.07 0.07 0.06 0.05 0.04 0.03 0.03 0.02 0.02 0.01 0.01 0.00 0.00 0.01 0.01 0.02 0.03 0.02 0.02 0.03 0.04 0.04 0.04 0.04
0.00 0.00 0.00 0.00 0.00 0.00 0.00 0.01 0.02 0.02 0.03 0.03 0.02 0.02 0.03 0.04 0.05 0.05 0.04 0.03 0.02 0.01 0.01 0.01 0.00 0.00 0.01 0.00 0.00 0.00 0.00 0.00 0.00 0.00 0.02 0.04 0.04 0.04 0.04 0.04 0.05 0.04 0.03
0.00 0.00 0.00 0.00 0.00 0.00 0.00 0.00 0.01 0.01 0.01 0.01 0.01 0.01 0.01 0.01 0.01 0.03 0.02 0.01 0.01 0.01 0.00 0.00 0.00 0.00 0.00 0.00 0.00 0.00 0.00 0.00 0.00 0.00 0.00 0.01 0.02 0.02 0.02 0.02 0.02 0.02 0.02
0.00 0.00 0.00 0.00 0.00 0.00 0.00 0.00 0.00 0.00 0.00 0.00 0.00 0.00 0.00 0.00 0.01 0.04 0.03 0.00 0.01 0.00 0.00 0.00 0.00 0.00 0.00 0.00 0.00 0.00 0.00 0.00 0.00 0.00 0.00 0.00 0.00 0.00 0.00 0.00 0.00 0.00 0.00
0.00 0.00 0.00 0.00 0.00 0.00 0.00 0.00 0.00 0.00 0.00 0.00 0.00 0.00 0.00 0.00 0.00 0.03 0.05 0.02 0.01 0.00 0.00 0.00 0.00 0.00 0.00 0.00 0.00 0.00 0.00 0.00 0.00 0.00 0.00 0.00 0.00 0.00 0.00 0.00 0.00 0.00 0.00
0.00 0.00 0.00 0.00 0.00 0.00 0.00 0.00 0.00 0.00 0.00 0.00 0.00 0.00 0.00 0.00 0.00 0.03 0.05 0.06 0.04 0.01 0.00 0.00 0.00 0.00 0.00 0.00 0.00 0.00 0.00 0.00 0.00 0.00 0.00 0.00 0.00 0.00 0.00 0.00 0.00 0.00 0.00
0.00 0.00 0.00 0.00 0.00 0.00 0.00 0.00 0.00 0.00 0.00 0.00 0.00 0.00 0.00 0.00 0.00 0.01 0.01 0.02 0.03 0.02 0.01 0.01 0.00 0.00 0.00 0.00 0.00 0.00 0.00 0.00 0.00 0.00 0.00 0.00 0.00 0.00 0.00 0.00 0.00 0.00 0.00
0.00 0.00 0.00 0.00 0.00 0.00 0.00 0.00 0.00 0.00 0.01 0.03 0.02 0.01 0.00 0.00 0.00 0.00 0.01 0.00 0.01 0.02 0.02 0.02 0.02 0.00 0.00 0.00 0.00 0.00 0.00 0.00 0.00 0.00 0.00 0.00 0.00 0.00 0.00 0.00 0.00 0.00 0.00
0.00 0.00 0.00 0.00 0.00 0.00 0.00 0.00 0.00 0.00 0.02 0.04 0.03 0.03 0.02 0.01 0.02 0.03 0.03 0.03 0.02 0.02 0.02 0.01 0.01 0.00 0.00 0.00 0.00 0.00 0.00 0.00 0.00 0.00 0.00 0.00 0.00 0.00 0.00 0.00 0.00 0.00 0.00
0.00 0.00 0.00 0.00 0.00 0.00 0.00 0.00 0.00 0.00 0.01 0.01 0.01 0.02 0.02 0.04 0.04 0.03 0.03 0.04 0.04 0.04 0.03 0.01 0.00 0.00 0.00 0.00 0.00 0.00 0.00 0.00 0.00 0.00 0.00 0.00 0.00 0.00 0.00 0.00 0.00 0.00 0.00
0.00 0.00 0.00 0.00 0.00 0.00 0.00 0.00 0.00 0.00 0.00 0.00 0.00 0.00 0.01 0.03 0.03 0.03 0.04 0.04 0.04 0.03 0.02 0.01 0.00 0.00 0.00 0.00 0.00 0.00 0.00 0.00 0.00 0.00 0.00 0.00 0.00 0.00 0.00 0.00 0.00 0.00 0.00
0.00 0.00 0.00 0.00 0.00 0.00 0.00 0.00 0.00 0.00 0.00 0.00 0.00 0.00 0.00 0.01 0.01 0.02 0.02 0.02 0.01 0.01 0.01 0.01 0.00 0.00 0.00 0.00 0.00 0.00 0.00 0.00 0.00 0.00 0.00 0.00 0.00 0.00 0.00 0.00 0.00 0.00 0.00
0.00 0.00 0.00 0.00 0.00 0.00 0.00 0.00 0.00 0.00 0.00 0.00 0.00 0.00 0.00 0.00 0.00 0.00 0.00 0.00 0.00 0.00 0.00 0.00 0.00 0.00 0.00 0.00 0.00 0.00 0.00 0.00 0.00 0.00 0.00 0.00 0.00 0.00 0.00 0.00 0.00 0.00 0.00
0.00 0.00 0.00 0.00 0.00 0.00 0.00 0.00 0.00 0.00 0.00 0.00 0.00 0.00 0.00 0.00 0.00 0.00 0.00 0.00 0.00 0.00 0.00 0.00 0.00 0.00 0.00 0.00 0.00 0.00 0.00 0.00 0.00 0.00 0.00 0.00 0.00 0.00 0.00 0.00 0.00 0.00 0.00
0.00 0.00 0.00 0.01 0.01 0.00 0.00 0.00 0.00 0.00 0.00 0.00 0.00 0.00 0.01 0.00 0.00 0.00 0.00 0.00 0.00 0.00 0.00 0.00 0.00 0.00 0.00 0.00 0.00 0.00 0.00 0.00 0.00 0.00 0.00 0.00 0.00 0.00 0.00 0.00 0.00 0.00 0.00
0.01 0.01 0.01 0.02 0.01 0.01 0.01 0.01 0.00 0.00 0.00 0.00 0.00 0.00 0.00 0.00 0.00 0.00 0.00 0.00 0.00 0.00 0.00 0.00 0.00 0.00 0.00 0.00 0.00 0.00 0.00 0.00 0.00 0.00 0.00 0.00 0.00 0.00 0.00 0.00 0.00 0.00 0.00
0.03 0.03 0.02 0.01 0.01 0.00 0.00 0.00 0.00 0.01 0.00 0.00 0.00 0.00 0.00 0.00 0.00 0.00 0.00 0.00 0.00 0.00 0.00 0.00 0.00 0.00 0.00 0.00 0.00 0.00 0.00 0.00 0.00 0.00 0.00 0.00 0.00 0.00 0.00 0.00 0.00 0.00 0.00
0.03 0.02 0.01 0.00 0.00 0.00 0.01 0.01 0.01 0.01 0.01 0.01 0.01 0.00 0.00 0.00 0.00 0.00 0.00 0.00 0.00 0.00 0.00 0.00 0.00 0.00 0.00 0.00 0.00 0.00 0.00 0.00 0.00 0.00 0.00 0.00 0.00 0.00 0.00 0.00 0.00 0.00 0.00
0.01 0.01 0.01 0.01 0.01 0.01 0.02 0.02 0.02 0.02 0.02 0.02 0.01 0.01 0.00 0.00 0.00 0.00 0.00 0.00 0.00 0.00 0.00 0.00 0.00 0.00 0.00 0.00 0.00 0.00 0.00 0.01 0.02 0.03 0.04 0.04 0.03 0.01 0.01 0.01 0.01 0.01 0.01
0.00 0.01 0.01 0.01 0.02 0.02 0.03 0.04 0.03 0.03 0.04 0.03 0.03 0.02 0.01 0.01 0.00 0.00 0.00 0.00 0.00 0.00 0.00 0.00 0.00 0.00 0.00 0.00 0.00 0.00 0.01 0.03 0.05 0.08 0.10 0.10 0.07 0.04 0.02 0.02 0.01 0.01 0.01
MSLP
1022.82 1022.19 1021.56 1020.93 1020.28 1019.60 1018.86 1018.05 1017.18 1016.25 1015.28 1014.29 1013.30 1012.35 1011.47 1010.68 1010.02 1009.49 1009.10 1008.85 1008.74 1008.74 1008.83 1008.98 1009.16 1009.34 1009.52 1009.67 1009.81 1009.93 1010.04 1010.16 1010.29 1010.45 1010.62 1010.83 1011.05 1011.28 1011.53 1011.80 1012.07 1012.36 1012.67
1023.50 1022.79 1022.08 1021.37 1020.66 1019.93 1019.16 1018.35 1017.49 1016.59 1015.65 1014.69 1013.73 1012.80 1011.93 1011.15 1010.49 1009.95 1009.55 1009.29 1009.16 1009.14 1009.20 1009.31 1009.45 1009.59 1009.73 1009.85 1009.95 1010.04 1010.12 1010.22 1010.33 1010.47 1010.63 1010.81 1011.01 1011.24 1011.48 1011.74 1012.02 1012.33 1012.66
1024.22 1023.43 1022.63 1021.84 1021.06 1020.28 1019.48 1018.65 1017.80 1016.92 1016.01 1015.08 1014.16 1013.26 1012.43 1011.68 1011.03 1010.51 1010.13 1009.87 1009.74 1009.70 1009.73 1009.81 1009.92 1010.02 1010.11 1010.18 1010.24 1010.29 1010.34 1010.40 1010.48 1010.59 1010.72 1010.88 1011.06 1011.26 1011.49 1011.75 1012.03 1012.34 1012.68
1024.93 1024.07 1023.20 1022.34 1021.50 1020.67 1019.84 1019.01 1018.16 1017.30 1016.41 1015.52 1014.64 1013.80 1013.00 1012.29 1011.68 1011.20 1010.83 1010.59 1010.45 1010.41 1010.42 1010.47 1010.53 1010.59 1010.63 1010.65 1010.66 1010.67 1010.67 1010.70 1010.74 1010.82 1010.92 1011.05 1011.20 1011.39 1011.60 1011.85 1012.13 1012.45 1012.79
1025.61 1024.69 1023.76 1022.86 1021.97 1021.11 1020.27 1019.44 1018.60 1017.76 1016.91 1016.06 1015.23 1014.42 1013.68 1013.01 1012.44 1011.98 1011.64 1011.41 1011.28 1011.22 1011.21 1011.22 1011.24 1011.25 1011.24 1011.21 1011.17 1011.13 1011.10 1011.08 1011.09 1011.14 1011.21 1011.32 1011.46 1011.63 1011.84 1012.08 1012.36 1012.66 1013.00
1026.21 1025.26 1024.30 1023.37 1022.48 1021.61 1020.77 1019.95 1019.13 1018.32 1017.50 1016.69 1015.90 1015.14 1014.44 1013.81 1013.27 1012.84 1012.51 1012.28 1012.14 1012.06 1012.02 1012.00 1011.98 1011.94 1011.88 1011.81 1011.72 1011.64 1011.57 1011.53 1011.51 1011.53 1011.60 1011.69 1011.82 1011.99 1012.19 1012.43 1012.70 1013.00 1013.33
1026.71 1025.75 1024.80 1023.87 1022.98 1022.13 1021.31 1020.51 1019.72 1018.94 1018.16 1017.38 1016.63 1015.90 1015.23 1014.63 1014.11 1013.69 1013.37 1013.13 1012.97 1012.87 1012.80 1012.74 1012.67 1012.60 1012.50 1012.39 1012.28 1012.17 1012.08 1012.02 1011.99 1012.01 1012.06 1012.16 1012.30 1012.47 1012.67 1012.91 1013.18 1013.47 1013.78
1027.11 1026.16 1025.23 1024.33 1023.47 1022.64 1021.85 1021.08 1020.32 1019.56 1018.81 1018.06 1017.33 1016.63 1015.98 1015.39 1014.88 1014.46 1014.12 1013.87 1013.69 1013.56 1013.46 1013.37 1013.28 1013.18 1013.07 1012.94 1012.82 1012.71 1012.62 1012.56 1012.54 1012.56 1012.62 1012.73 1012.87 1013.05 1013.26 1013.50 1013.76 1014.04 1014.33
1027.41 1026.50 1025.60 1024.74 1023.91 1023.12 1022.35 1021.60 1020.86 1020.13 1019.40 1018.67 1017.95 1017.26 1016.61 1016.03 1015.51 1015.08 1014.73 1014.46 1014.26 1014.10 1013.99 1013.88 1013.78 1013.68 1013.57 1013.46 1013.35 1013.26 1013.19 1013.15 1013.15 1013.20 1013.28 1013.40 1013.55 1013.73 1013.94 1014.18 1014.43 1014.69 1014.95
1027.64 1026.77 1025.92 1025.09 1024.29 1023.53 1022.78 1022.05 1021.33 1020.60 1019.88 1019.16 1018.45 1017.76 1017.11 1016.51 1015.99 1015.54 1015.17 1014.88 1014.66 1014.50 1014.37 1014.28 1014.19 1014.11 1014.03 1013.96 1013.89 1013.84 1013.81 1013.81 1013.85 1013.92 1014.02 1014.15 1014.31 1014.49 1014.69 1014.90 1015.13 1015.36 1015.59
1027.84 1027.01 1026.19 1025.39 1024.62 1023.87 1023.14 1022.41 1021.70 1020.98 1020.26 1019.53 1018.82 1018.13 1017.47 1016.87 1016.33 1015.86 1015.48 1015.17 1014.94 1014.78 1014.66 1014.58 1014.53 1014.49 1014.46 1014.45 1014.44 1014.45 1014.48 1014.53 1014.61 1014.71 1014.83 1014.96 1015.12 1015.28 1015.46 1015.64 1015.83 1016.02 1016.20
1028.01 1027.21 1026.42 1025.64 1024.89 1024.15 1023.42 1022.70 1021.99 1021.27 1020.55 1019.83 1019.12 1018.43 1017.76 1017.15 1016.60 1016.12 1015.72 1015.40 1015.17 1015.00 1014.90 1014.85 1014.84 1014.85 1014.89 1014.94 1015.01 1015.09 1015.18 1015.29 1015.40 1015.53 1015.66 1015.80 1015.94 1016.08 1016.22 1016.36 1016.49 1016.62 1016.74
1028.15 1027.38 1026.61 1025.85 1025.10 1024.37 1023.65 1022.94 1022.23 1021.52 1020.81 1020.10 1019.40 1018.71 1018.05 1017.43 1016.87 1016.38 1015.97 1015.64 1015.40 1015.24 1015.15 1015.12 1015.15 1015.21 1015.31 1015.43 1015.57 1015.72 1015.87 1016.03 1016.18 1016.34 1016.48 1016.62 1016.74 1016.84 1016.94 1017.02 1017.09 1017.15 1017.20
1028.25 1027.50 1026.74 1025.99 1025.26 1024.54 1023.83 1023.13 1022.44 1021.76 1021.07 1020.38 1019.70 1019.03 1018.38 1017.77 1017.21 1016.71 1016.29 1015.95 1015.70 1015.54 1015.45 1015.44 1015.49 1015.59 1015.74 1015.91 1016.10 1016.30 1016.51 1016.71 1016.90 1017.08 1017.23 1017.35 1017.45 1017.53 1017.57 1017.60 1017.61 1017.60 1017.58
1028.28 1027.53 1026.79 1026.06 1025.34 1024.63 1023.95 1023.28 1022.63 1021.98 1021.33 1020.69 1020.04 1019.41 1018.79 1018.19 1017.64 1017.15 1016.72 1016.37 1016.11 1015.93 1015.84 1015.82 1015.88 1016.00 1016.16 1016.36 1016.59 1016.83 1017.06 1017.29 1017.51 1017.70 1017.85 1017.97 1018.06 1018.10 1018.11 1018.09 1018.05 1017.98 1017.89
1028.18 1027.44 1026.71 1026.00 1025.30 1024.63 1023.98 1023.36 1022.75 1022.15 1021.56 1020.97 1020.38 1019.80 1019.22 1018.66 1018.14 1017.66 1017.23 1016.88 1016.61 1016.41 1016.31 1016.28 1016.32 1016.42 1016.58 1016.79 1017.01 1017.26 1017.51 1017.75 1017.97 1018.17 1018.33 1018.45 1018.52 1018.55 1018.54 1018.49 1018.40 1018.29 1018.15
1027.93 1027.20 1026.48 1025.78 1025.11 1024.48 1023.87 1023.29 1022.74 1022.21 1021.68 1021.16 1020.64 1020.12 1019.60 1019.10 1018.62 1018.17 1017.77 1017.43 1017.16 1016.96 1016.83 1016.78 1016.80 1016.88 1017.01 1017.18 1017.39 1017.62 1017.85 1018.08 1018.30 1018.49 1018.65 1018.77 1018.84 1018.87 1018.85 1018.78 1018.67 1018.53 1018.36
1027.52 1026.79 1026.08 1025.39 1024.75 1024.14 1023.57 1023.04 1022.54 1022.06 1021.60 1021.15 1020.70 1020.26 1019.82 1019.39 1018.98 1018.60 1018.25 1017.95 1017.70 1017.51 1017.38 1017.31 1017.30 1017.34 1017.43 1017.56 1017.72 1017.90 1018.10 1018.29 1018.49 1018.66 1018.81 1018.92 1019.00 1019.03 1019.01 1018.94 1018.84 1018.69 1018.50
1026.98 1026.23 1025.52 1024.84 1024.20 1023.61 1023.06 1022.56 1022.10 1021.67 1021.26 1020.87 1020.49 1020.13 1019.78 1019.45 1019.13 1018.84 1018.58 1018.35 1018.15 1018.00 1017.89 1017.82 1017.78 1017.79 1017.83 1017.89 1017.99 1018.11 1018.24 1018.39 1018.53 1018.67 1018.80 1018.90 1018.97 1019.00 1018.99 1018.94 1018.84 1018.70 1018.51
1026.34 1025.57 1024.84 1024.14 1023.50 1022.90 1022.36 1021.86 1021.41 1021.00 1020.63 1020.29 1019.98 1019.70 1019.44 1019.22 1019.02 1018.84 1018.69 1018.56 1018.46 1018.37 1018.30 1018.25 1018.20 1018.18 1018.16 1018.17 1018.19 1018.23 1018.28 1018.35 1018.43 1018.51 1018.60 1018.67 1018.72 1018.76 1018.75 1018.71 1018.63 1018.50 1018.33
1025.66 1024.86 1024.10 1023.38 1022.71 1022.08 1021.51 1021.00 1020.53 1020.11 1019.75 1019.44 1019.19 1018.98 1018.82 1018.71 1018.63 1018.59 1018.57 1018.57 1018.57 1018.57 1018.56 1018.54 1018.50 1018.45 1018.39 1018.33 1018.26 1018.21 1018.17 1018.14 1018.14 1018.15 1018.17 1018.20 1018.23 1018.25 1018.24 1018.21 1018.14 1018.03 1017.89
1025.02 1024.19 1023.39 1022.63 1021.91 1021.24 1020.63 1020.06 1019.56 1019.12 1018.74 1018.44 1018.22 1018.08 1018.00 1017.99 1018.04 1018.13 1018.24 1018.37 1018.48 1018.58 1018.64 1018.65 1018.62 1018.55 1018.44 1018.31 1018.16 1018.00 1017.86 1017.74 1017.64 1017.56 1017.51 1017.48 1017.46 1017.45 1017.43 1017.39 1017.33 1017.24 1017.12
1024.48 1023.62 1022.78 1021.98 1021.22 1020.50 1019.82 1019.20 1018.64 1018.15 1017.75 1017.45 1017.24 1017.14 1017.12 1017.20 1017.35 1017.55 1017.78 1018.01 1018.22 1018.39 1018.51 1018.55 1018.52 1018.42 1018.26 1018.06 1017.82 1017.57 1017.32 1017.10 1016.90 1016.73 1016.60 1016.50 1016.43 1016.37 1016.32 1016.27 1016.21 1016.13 1016.03
1024.10 1023.21 1022.35 1021.52 1020.71 1019.94 1019.20 1018.52 1017.91 1017.38 1016.94 1016.62 1016.41 1016.33 1016.36 1016.49 1016.70 1016.97 1017.28 1017.58 1017.85 1018.06 1018.20 1018.24 1018.20 1018.06 1017.84 1017.56 1017.24 1016.91 1016.57 1016.25 1015.96 1015.71 1015.50 1015.33 1015.20 1015.09 1015.00 1014.93 1014.85 1014.77 1014.68
1023.89 1023.00 1022.13 1021.27 1020.44 1019.63 1018.85 1018.13 1017.47 1016.90 1016.43 1016.09 1015.87 1015.79 1015.83 1015.98 1016.22 1016.52 1016.84 1017.16 1017.44 1017.64 1017.76 1017.78 1017.69 1017.50 1017.22 1016.87 1016.48 1016.06 1015.65 1015.25 1014.89 1014.57 1014.30 1014.07 1013.88 1013.73 1013.60 1013.49 1013.39 1013.29 1013.20
1023.85 1022.98 1022.11 1021.25 1020.41 1019.58 1018.79 1018.04 1017.36 1016.77 1016.29 1015.92 1015.69 1015.60 1015.62 1015.76 1015.98 1016.26 1016.56 1016.84 1017.07 1017.22 1017.28 1017.23 1017.08 1016.82 1016.48 1016.07 1015.62 1015.15 1014.68 1014.24 1013.83 1013.47 1013.15 1012.87 1012.64 1012.44 1012.26 1012.11 1011.98 1011.86 1011.75
Thickness
5338 5338 5339 5340 5340 5340 5341 5342 5343 5345 5347 5351 5356 5363 5372 5382 5393 5402 5411 5418 5424 5428 5433 5437 5441 5445 5448 5453 5459 5464 5467 5470 5474 5478 5482 5487 5492 5495 5498 5501 5505 5507 5509
5324 5326 5326 5326 5327 5329 5330 5332 5334 5335 5337 5340 5345 5352 5360 5369 5377 5385 5394 5402 5408 5413 5417 5422 5425 5430 5433 5436 5442 5448 5452 5457 5461 5464 5467 5470 5476 5481 5484 5486 5489 5491 5494
5312 5313 5314 5314 5315 5317 5319 5322 5323 5324 5326 5328 5332 5338 5346 5354 5362 5370 5379 5385 5391 5396 5402 5406 5409 5413 5415 5419 5424 5430 5435 5442 5447 5451 5453 5455 5458 5463 5466 5469 5472 5474 5478
5300 5301 5302 5302 5303 5305 5307 5310 5311 5313 5314 5315 5318 5323 5330 5339 5346 5353 5361 5367 5373 5379 5384 5388 5392 5396 5400 5404 5409 5413 5420 5426 5432 5436 5439 5441 5444 5448 5451 5453 5453 5456 5458
5288 5289 5290 5291 5291 5292 5294 5296 5298 5300 5302 5303 5305 5309 5314 5323 5332 5337 5343 5349 5354 5359 5363 5368 5374 5380 5386 5390 5395 5399 5405 5410 5416 5422 5426 5428 5429 5432 5435 5438 5438 5438 5438
5277 5278 5279 5280 5280 5280 5281 5283 5285 5287 5289 5291 5293 5296 5300 5307 5315 5322 5326 5329 5334 5338 5343 5349 5355 5359 5365 5372 5380 5386 5391 5394 5398 5403 5407 5412 5412 5415 5418 5422 5422 5423 5422
5265 5265 5267 5267 5267 5268 5268 5269 5271 5273 5276 5279 5282 5285 5288 5292 5301 5307 5311 5313 5317 5321 5326 5331 5336 5342 5347 5352 5359 5366 5372 5378 5382 5383 5386 5389 5391 5395 5400 5402 5404 5405 5406
5251 5252 5253 5253 5254 5254 5254 5255 5256 5259 5263 5267 5271 5274 5277 5282 5288 5293 5298 5300 5303 5308 5312 5316 5320 5326 5332 5336 5342 5347 5351 5356 5361 5364 5366 5369 5371 5375 5380 5383 5385 5386 5387
5238 5238 5238 5238 5239 5239 5239 5240 5242 5245 5248 5253 5258 5262 5266 5270 5276 5281 5285 5287 5290 5294 5298 5301 5305 5310 5318 5322 5326 5330 5333 5337 5342 5346 5350 5353 5356 5359 5362 5365 5367 5370 5372
5224 5223 5222 5222 5222 5223 5223 5225 5227 5229 5232 5236 5241 5246 5250 5255 5261 5267 5270 5273 5275 5279 5283 5287 5293 5296 5302 5305 5308 5313 5316 5319 5323 5327 5329 5332 5335 5339 5342 5345 5350 5354 5357
5208 5207 5205 5205 5205 5207 5206 5208 5211 5214 5216 5219 5223 5228 5232 5237 5243 5250 5255 5258 5261 5264 5267 5271 5275 5281 5286 5291 5294 5298 5302 5303 5306 5309 5311 5313 5316 5318 5322 5326 5331 5336 5341
5193 5191 5188 5187 5186 5188 5188 5190 5193 5195 5198 5202 5206 5211 5215 5219 5224 5231 5238 5243 5246 5249 5252 5255 5260 5266 5270 5275 5278 5284 5286 5287 5290 5292 5294 5295 5298 5301 5305 5309 5315 5320 5325
5179 5176 5174 5171 5168 5168 5169 5171 5173 5176 5179 5185 5190 5193 5197 5201 5205 5212 5219 5225 5230 5233 5236 5242 5247 5251 5254 5257 5263 5266 5267 5269 5272 5274 5275 5277 5281 5285 5290 5296 5301 5306 5312
5167 5164 5162 5158 5154 5151 5151 5152 5154 5155 5159 5165 5169 5173 5177 5182 5187 5193 5199 5205 5211 5215 5219 5225 5230 5234 5237 5241 5243 5245 5249 5252 5254 5256 5258 5261 5266 5271 5275 5280 5286 5292 5298
5159 5155 5152 5148 5142 5138 5136 5135 5136 5137 5140 5143 5146 5151 5157 5163 5169 5178 5183 5189 5193 5198 5202 5206 5211 5215 5218 5221 5223 5227 5230 5233 5236 5239 5241 5246 5250 5255 5260 5265 5271 5277 5282
5156 5151 5147 5143 5137 5132 5128 5124 5122 5123 5125 5126 5128 5132 5138 5144 5150 5157 5163 5169 5175 5180 5183 5186 5189 5193 5197 5201 5204 5208 5212 5216 5219 5223 5226 5230 5235 5240 5245 5251 5258 5263 5269
5151 5146 5141 5137 5132 5127 5124 5119 5116 5114 5112 5112 5113 5115 5119 5124 5129 5134 5139 5144 5149 5154 5157 5160 5164 5169 5173 5178 5183 5188 5193 5198 5202 5207 5211 5215 5220 5226 5232 5238 5245 5251 5258
5149 5143 5138 5132 5127 5122 5117 5113 5110 5108 5105 5103 5102 5103 5105 5107 5110 5113 5117 5119 5122 5126 5130 5135 5140 5146 5151 5156 5162 5168 5173 5179 5184 5189 5194 5199 5205 5211 5218 5224 5231 5239 5247
5148 5143 5138 5132 5126 5120 5114 5109 5105 5102 5098 5096 5094 5093 5094 5094 5094 5095 5095 5095 5097 5100 5104 5110 5116 5122 5128 5134 5141 5147 5153 5159 5165 5171 5177 5183 5189 5196 5203 5210 5217 5227 5235
5149 5144 5138 5133 5126 5118 5111 5105 5099 5095 5091 5088 5086 5085 5084 5084 5081 5080 5079 5079 5079 5080 5083 5086 5091 5098 5104 5110 5117 5124 5131 5138 5145 5152 5159 5166 5173 5180 5188 5196 5204 5211 5219
5152 5146 5141 5134 5124 5116 5108 5101 5094 5089 5084 5081 5079 5078 5079 5077 5074 5071 5069 5068 5067 5066 5067 5068 5071 5075 5081 5087 5094 5102 5110 5117 5125 5133 5141 5149 5156 5164 5172 5181 5190 5198 5207
5155 5148 5140 5130 5121 5113 5105 5098 5091 5085 5079 5075 5072 5071 5071 5070 5067 5065 5063 5061 5059 5058 5057 5057 5057 5059 5062 5067 5073 5080 5088 5096 5105 5114 5122 5131 5140 5148 5157 5166 5175 5184 5193
5156 5146 5137 5128 5120 5112 5104 5095 5087 5080 5074 5069 5066 5064 5063 5062 5060 5059 5057 5055 5053 5051 5050 5048 5048 5048 5050 5053 5057 5063 5069 5078 5087 5096 5105 5114 5124 5133 5143 5152 5162 5172 5182
5155 5146 5139 5131 5123 5114 5105 5096 5087 5079 5072 5066 5062 5059 5058 5057 5055 5054 5052 5050 5048 5046 5043 5042 5040 5040 5041 5043 5046 5051 5056 5063 5071 5080 5089 5099 5109 5120 5130 5140 5150 5161 5171
5159 5151 5144 5137 5129 5120 5112 5102 5093 5084 5076 5069 5063 5059 5057 5055 5052 5050 5048 5046 5043 5041 5039 5037 5035 5035 5036 5037 5040 5044 5049 5055 5063 5071 5080 5088 5098 5109 5119 5129 5141 5151 5161
5164 5158 5152 5146 5138 5130 5121 5112 5103 5093 5084 5076 5068 5062 5058 5055 5052 5049 5046 5043 5040 5038 5036 5034 5033 5033 5034 5035 5038 5043 5048 5055 5062 5070 5077 5085 5092 5100 5109 5120 5130 5141 5151